Вернуться в каталог

ELEKTRON 1

АктивенНаукаHEO
NORAD 746·PAYLOAD·🇷🇺 Russia

Запущен Jan 30, 1964 с Baikonur Cosmodrome

Loading…

Ближайшие Пролёты (ближайшие 24 часа)

TLE

СвежийSource: Space-Track

Эпоха: Sep 14, 2026, 12:20 UTC

1 00746U 64006A   26257.51401259  .00000530  00000-0  15268-3 0  9995
2 00746  60.8866  67.1009 2996384 249.8273  75.8402  9.10988490 75389

Отслеживайте ELEKTRON 1 в реальном времени с AllMySat

Download on the App Store